Location: Krasnoyarskiy Pitomnik
(51.1333°N, 71.6167°E)
Time: 00:05:50
(UTC+00:00)

CZ-2D DEB - Visible Passes

Search period start: 09 October 2024 00:00
Search period end: 19 October 2024 00:00
Orbit: 578 x 601 km, 98.3° (Epoch: 08 October)

Date Brightness Start Highest point End Pass type
(mag) Time Alt. Az. Time Alt. Az. Time Alt. Az.
09 Oct ? 13:30:04 10° NNW 13:32:21 15° WNW 13:34:38 10° W visible
09 Oct ? 21:19:44 11° NNE 21:19:44 11° NNE 21:20:07 10° NNE visible
09 Oct ? 22:56:16 12° NNW 22:56:16 12° NNW 22:56:35 10° NNW visible
10 Oct ? 13:38:05 10° NNW 13:39:54 13° NW 13:41:45 10° W visible
10 Oct ? 21:27:42 11° NNE 21:27:42 11° NNE 21:27:56 10° NNE visible
11 Oct ? 13:46:05 10° NW 13:47:18 11° NW 13:48:31 10° WNW visible
11 Oct ? 21:35:28 10° N 21:35:28 10° N 21:35:31 10° N visible
17 Oct ? 12:50:11 10° N 12:53:50 31° WNW 12:57:29 10° SW visible
18 Oct ? 12:56:34 10° N 13:00:05 27° WNW 13:03:36 10° WSW visible
